This demonstration page uses our WeatherBlox Daily Observations layout. Learn more.

Left ArrowRight Arrow

40.92945, -100.16068

Hourly Observations for October 20, 2018

Temp ( °F °C ) Dew Point ( °F °C ) Humidity (%) Winds ( mph kmh ) Pressure ( in mb ) Visibility ( mi km ) Precip ( " mm )
12:15 am 00:15 Clear 41 4.9 33 0.4 73 73 WNW 9 15 30.36 1028 10 16.0934 0 0
12:35 am 00:35 Clear 39 4.1 32 0.1 75 75 W 7 11 30.36 1028 10 16.0934 0 0
12:55 am 00:55 Clear 38 3.5 32 0.1 79 79 WNW 8 13 30.36 1028 10 16.0934 0 0
1:15 am 01:15 Clear 38 3.2 32 0.1 80 80 W 6 9 30.39 1029 10 16.0934 0 0
1:35 am 01:35 Clear 37 3 32 0 81 81 WNW 8 13 30.39 1029 10 16.0934 0 0
1:55 am 01:55 Clear 39 3.8 32 0.1 77 77 WNW 8 13 30.36 1028 10 16.0934 0 0
2:15 am 02:15 Clear 38 3.1 32 0 80 80 WNW 7 11 30.39 1029 10 16.0934 0 0
2:35 am 02:35 Clear 38 3.1 32 0 80 80 WNW 8 13 30.39 1029 10 16.0934 0 0
2:55 am 02:55 Clear 37 2.7 32 -0.1 82 82 WNW 7 11 30.39 1029 10 16.0934 0 0
3:15 am 03:15 Clear 37 2.6 32 0 83 83 WNW 8 13 30.39 1029 10 16.0934 0 0
3:35 am 03:35 Clear 37 3 32 0 81 81 WNW 8 13 30.39 1029 10 16.0934 0 0
3:55 am 03:55 Clear 37 2.7 32 -0.2 81 81 WNW 9 15 30.39 1029 10 16.0934 0 0
4:15 am 04:15 Clear 37 3 32 0 81 81 WNW 9 15 30.39 1029 10 16.0934 0 0
4:35 am 04:35 Clear 37 3 32 0 81 81 WNW 9 15 30.42 1030 10 16.0934 0 0
4:55 am 04:55 Clear 39 3.7 32 0 77 77 WNW 10 17 30.39 1029 10 16.0934 0 0
5:15 am 05:15 Clear 38 3.6 32 0 78 78 WNW 9 15 30.39 1029 10 16.0934 0 0
5:35 am 05:35 Clear 38 3.3 32 -0.1 79 79 WNW 8 13 30.42 1030 10 16.0934 0 0
5:55 am 05:55 Clear 37 2.9 32 -0.2 80 80 NW 10 17 30.42 1030 10 16.0934 0 0
6:15 am 06:15 Clear 37 2.5 31 -0.5 81 81 WNW 7 11 30.42 1030 10 16.0934 0 0
6:35 am 06:35 Clear 36 2 31 -0.5 84 84 WNW 6 9 30.45 1031 10 16.0934 0 0
6:55 am 06:55 Clear 37 2.5 32 -0.2 83 83 WNW 6 9 30.45 1031 10 16.0934 0 0
7:15 am 07:15 Clear 36 2.1 31 -0.5 83 83 WNW 6 9 30.45 1031 10 16.0934 0 0
7:35 am 07:35 Clear 35 1.8 31 -0.6 84 84 WNW 8 13 30.45 1031 10 16.0934 0 0
7:55 am 07:55 Clear 35 1.6 31 -0.7 85 85 WNW 8 13 30.45 1031 10 16.0934 0 0
8:15 am 08:15 Sunny 35 1.7 31 -0.5 86 86 WNW 7 11 30.45 1031 10 16.0934 0 0
8:35 am 08:35 Sunny 36 2.1 32 -0.1 86 86 WNW 7 11 30.48 1032 10 16.0934 0 0
8:55 am 08:55 Sunny 38 3.4 32 0.2 80 80 WNW 8 13 30.48 1032 10 16.0934 0 0
9:15 am 09:15 Sunny 40 4.7 33 0.5 74 74 WNW 8 13 30.45 1031 10 16.0934 0 0
9:35 am 09:35 Sunny 43 5.9 34 0.9 71 71 WNW 6 9 30.45 1031 10 16.0934 0 0
9:55 am 09:55 Sunny 46 7.5 34 1.3 65 65 NW 6 9 30.42 1030 10 16.0934 0 0
10:15 am 10:15 Sunny 48 9.1 34 1.3 58 58 NNW 7 11 30.42 1030 10 16.0934 0 0
10:35 am 10:35 Sunny 51 10.3 35 1.4 54 54 NNW 7 11 30.39 1029 10 16.0934 0 0
10:55 am 10:55 Sunny 53 11.6 35 1.4 50 50 NNW 7 11 30.39 1029 10 16.0934 0 0
11:15 am 11:15 Sunny 55 12.8 34 1.2 45 45 NNW 9 15 30.39 1029 10 16.0934 0 0
11:35 am 11:35 Sunny 57 14.1 32 -0.1 38 38 N 9 15 30.36 1028 10 16.0934 0 0
11:55 am 11:55 Sunny 58 14.5 30 -1 35 35 N 10 17 30.36 1028 10 16.0934 0 0
12:15 pm 12:15 Sunny 59 15 30 -1 34 34 N 12 19 30.36 1028 10 16.0934 0 0
12:35 pm 12:35 Sunny 60 15.4 30 -1.1 32 32 N 10 17 30.36 1028 10 16.0934 0 0
12:55 pm 12:55 Sunny 61 16 32 -0.2 33 33 NNW 9 15 30.36 1028 10 16.0934 0 0
1:15 pm 13:15 Sunny 62 16.4 31 -0.6 32 32 N 9 15 30.36 1028 10 16.0934 0 0
1:35 pm 13:35 Sunny 62 16.6 31 -0.7 31 31 NNE 6 9 30.36 1028 10 16.0934 0 0
1:55 pm 13:55 Sunny 62 16.6 31 -0.6 31 31 NNE 9 15 30.3 1026 10 16.0934 0 0
2:15 pm 14:15 Sunny 62 16.9 31 -0.7 30 30 N 7 11 30.3 1026 10 16.0934 0 0
2:35 pm 14:35 Sunny 63 17.4 31 -0.4 30 30 NNE 8 13 30.3 1026 10 16.0934 0 0
2:55 pm 14:55 Sunny 63 17.3 31 -0.4 30 30 N 10 17 30.3 1026 10 16.0934 0 0
3:15 pm 15:15 Sunny 64 17.6 32 0.1 31 31 N 12 19 30.3 1026 10 16.0934 0 0
3:35 pm 15:35 Sunny 64 17.5 32 -0.1 31 31 NNE 9 15 30.3 1026 10 16.0934 0 0
3:55 pm 15:55 Sunny 64 17.6 31 -0.4 30 30 NNE 5 7 30.27 1025 10 16.0934 0 0
4:15 pm 16:15 Sunny 64 17.5 32 -0.2 30 30 N 3 6 30.27 1025 10 16.0934 0 0
4:35 pm 16:35 Sunny 63 17.4 31 -0.3 30 30 NNE 5 7 30.27 1025 10 16.0934 0 0
4:55 pm 16:55 Sunny 63 17.3 31 -0.3 30 30 NNE 6 9 30.27 1025 10 16.0934 0 0
5:15 pm 17:15 Sunny 63 17 31 -0.3 31 31 NE 3 6 30.27 1025 10 16.0934 0 0
5:35 pm 17:35 Sunny 63 17 31 -0.3 31 31 NNE 3 6 30.27 1025 10 16.0934 0 0
5:55 pm 17:55 Sunny 62 16.6 31 -0.3 32 32 Calm 30.27 1025 10 16.0934 0 0
6:15 pm 18:15 Sunny 61 16 32 -0.2 33 33 ENE 3 6 30.3 1026 10 16.0934 0 0
6:35 pm 18:35 Sunny 57 13.8 34 1.2 43 43 E 5 7 30.3 1026 10 16.0934 0 0
6:55 pm 18:55 Clear 56 13.2 32 -0.2 40 40 ESE 5 7 30.3 1026 10 16.0934 0 0
7:15 pm 19:15 Clear 52 11.3 33 0.3 47 47 ESE 5 7 30.33 1027 10 16.0934 0 0
7:35 pm 19:35 Clear 50 10.1 32 0.1 50 50 ESE 7 11 30.33 1027 10 16.0934 0 0
7:55 pm 19:55 Clear 50 10.2 32 0.2 50 50 E 7 11 30.33 1027 10 16.0934 0 0
8:15 pm 20:15 Clear 50 10.1 32 0.2 51 51 ESE 7 11 30.33 1027 10 16.0934 0 0
8:35 pm 20:35 Clear 49 9.5 32 0 52 52 E 6 9 30.36 1028 10 16.0934 0 0
8:55 pm 20:55 Clear 48 8.7 32 0.1 55 55 ESE 7 11 30.36 1028 10 16.0934 0 0
9:15 pm 21:15 Clear 47 8.2 32 0.1 57 57 ESE 7 11 30.36 1028 10 16.0934 0 0
9:35 pm 21:35 Clear 46 7.9 32 0 58 58 SE 6 9 30.36 1028 10 16.0934 0 0
9:55 pm 21:55 Clear 46 7.7 32 0 59 59 SE 6 9 30.36 1028 10 16.0934 0 0
10:15 pm 22:15 Clear 45 7.2 32 0 61 61 SE 7 11 30.36 1028 10 16.0934 0 0
10:35 pm 22:35 Clear 46 7.5 31 -0.8 56 56 SE 7 11 30.36 1028 10 16.0934 0 0
10:55 pm 22:55 Clear 46 7.6 30 -1.3 54 54 SE 6 9 30.36 1028 10 16.0934 0 0
11:15 pm 23:15 Clear 42 5.7 29 -1.4 61 61 SE 6 9 30.39 1029 10 16.0934 0 0
11:35 pm 23:35 Clear 44 6.7 29 -1.4 57 57 SSE 8 13 30.33 1027 10 16.0934 0 0
11:55 pm 23:55 Clear 43 6.1 29 -1.4 59 59 SSE 8 13 30.36 1028 10 16.0934 0 0

Powered by AerisWeather